Weather in Khryashchevka

Russia / Samara Oblast     53°48′42″N   49°05′37″E
temp.,
°C
wind,
m/s
gust,
m/s
humid.,
%
clouds,
%
prec.,
mm/h
press.,
hPa
HPBL,
m
25 february, thu
thu2501:00−25nw239179 0.0 103632
04:00−24sw118890 0.0 103620
07:00−23ssw238896 0.0 103442
10:00−20s568698 0.0 1031256
13:00−18s71088100 0.0 1028382
16:00−16s91395100 0.9 1024526
19:00−16s81394100 1.4 1021699
22:00−14s81394100 2.7 1018566
26 february, fri
fri2601:00−13sse61194100 1.1 1016461
04:00−13sse599499 1.6 1015329
07:00−13se4796100 0.4 1014204
10:00−11se469495 0.5 1014298
13:00−9sse469198 0.1 1013430
16:00−8sse579198 0.2 1012458
19:00−8sse71194100 0.5 1009377
22:00−7sse71295100 3.0 1005421
27 february, sat
sat2701:00−4s6995100 3.6 1000259
04:00+2wsw4897100 3.9 999173
07:00+1wsw598787 0.0 998273
10:00+1wsw5109892 0.3 998352
13:00+1wsw489775 0.0 998291
16:00+1wsw489459 0.0 999270
19:000wsw459088 0.0 999107
22:00−1sw469794 0.2 999166
28 february, sun
sun2801:00−1sw3498100 0.5 999111
04:00−2wsw2398100 1.4 100056
07:00−8nnw71194100 0.8 1002248
10:00−11nnw7109199 1.1 1004335
13:00−11nnw7119099 0.1 1006413
16:00−11nnw7118999 0.1 1008486
19:00−12nnw6119199 0.1 1011370
22:00−12n6119199 0.1 1013416
1 march, mon
mon101:00−14n7119196 0.1 1015340
04:00−18nnw6119294 0.1 1017252
07:00−20nnw6119319 0.0 1019254
10:00−19nnw6109113 0.0 1021312
13:00−17nnw69897 0.0 1022341
16:00−15nnw59898 0.0 1023320
19:00−18nnw34910 0.0 102348
22:00−19w22900 0.0 102520